When you browse on this site, cookies collect data to enhance your experience and personalize the content and advertising you see.
Visit our Privacy Policy to learn more. By continuing to use the site, you agree to this use of cookies and data.
  • In Czech Republic
  • List of Countries
  • For 7 days
  • Water Temperature
  • Weather Map
  • Weather Widgets
  • user-avatar
    Login

    Hourly Weather Batagay-Alyta

    Today, 2 June, Tuesday

    Time Temperature Precipitation Wind Pressure Humidity
    00:00 +7°C° 0 mm 1 mps 707 mmHg 66%
    01:00 +7°C° 0 mm 1 mps 707 mmHg 69%
    02:00 +6°C° 0 mm 1 mps 707 mmHg 73%
    03:00 +6°C° 0 mm 1 mps 707 mmHg 76%
    04:00 +7°C° 0 mm 1 mps 707 mmHg 76%
    05:00 +7°C° 0 mm 1 mps 707 mmHg 76%
    06:00 +6°C° 0 mm 0 mps 707 mmHg 75%
    07:00 +8°C° 0 mm 1 mps 707 mmHg 72%
    08:00 +8°C° 0 mm 1 mps 707 mmHg 68%
    09:00 +8°C° 0 mm 2 mps 708 mmHg 64%
    10:00 +9°C° 0 mm 2 mps 708 mmHg 60%
    11:00 +9°C° 0 mm 2 mps 708 mmHg 57%
    12:00 +10°C° 0 mm 2 mps 708 mmHg 54%
    13:00 +12°C° 0.1 mm 2 mps 708 mmHg 52%
    14:00 +12°C° 0.1 mm 2 mps 708 mmHg 50%
    15:00 +13°C° 0.1 mm 1 mps 708 mmHg 48%
    16:00 +13°C° 0.1 mm 2 mps 708 mmHg 48%
    17:00 +13°C° 0.1 mm 2 mps 708 mmHg 48%
    18:00 +13°C° 0.1 mm 2 mps 708 mmHg 48%
    19:00 +12°C° 0.2 mm 2 mps 708 mmHg 53%
    20:00 +10°C° 0.2 mm 2 mps 708 mmHg 59%
    21:00 +10°C° 0.2 mm 2 mps 708 mmHg 65%
    22:00 +8°C° 0.1 mm 2 mps 708 mmHg 72%
    23:00 +7°C° 0.1 mm 2 mps 708 mmHg 80%

    Tomorrow, 3 June, Wednesday

    Time Temperature Precipitation Wind Pressure Humidity
    00:00 +6°C° 0.1 mm 2 mps 708 mmHg 88%
    01:00 +6°C° 0.1 mm 2 mps 708 mmHg 87%
    02:00 +6°C° 0.1 mm 2 mps 708 mmHg 87%
    03:00 +7°C° 0.1 mm 1 mps 708 mmHg 86%
    04:00 +7°C° 0 mm 1 mps 708 mmHg 83%
    05:00 +8°C° 0 mm 1 mps 709 mmHg 79%
    06:00 +8°C° 0 mm 1 mps 709 mmHg 75%
    07:00 +9°C° 0.1 mm 1 mps 709 mmHg 71%
    08:00 +9°C° 0.1 mm 1 mps 709 mmHg 66%
    09:00 +10°C° 0.1 mm 1 mps 709 mmHg 62%
    10:00 +11°C° 0.1 mm 1 mps 709 mmHg 57%
    11:00 +12°C° 0.1 mm 2 mps 709 mmHg 53%
    12:00 +12°C° 0.1 mm 2 mps 709 mmHg 49%
    13:00 +13°C° 0.1 mm 2 mps 709 mmHg 47%
    14:00 +13°C° 0.1 mm 2 mps 709 mmHg 44%
    15:00 +13°C° 0.1 mm 3 mps 709 mmHg 42%
    16:00 +13°C° 0 mm 3 mps 709 mmHg 42%
    17:00 +13°C° 0 mm 3 mps 709 mmHg 41%
    18:00 +12°C° 0 mm 3 mps 709 mmHg 41%
    19:00 +12°C° 0 mm 3 mps 710 mmHg 44%
    20:00 +11°C° 0 mm 3 mps 710 mmHg 46%
    21:00 +12°C° 0 mm 2 mps 710 mmHg 48%
    22:00 +9°C° 0 mm 2 mps 710 mmHg 54%
    23:00 +9°C° 0 mm 1 mps 710 mmHg 61%

    Day after tomorrow, 4 June, Thursday

    Time Temperature Precipitation Wind Pressure Humidity
    00:00 +7°C° 0 mm 1 mps 710 mmHg 67%
    01:00 +6°C° 0 mm 0 mps 710 mmHg 67%
    02:00 +6°C° 0 mm 0 mps 710 mmHg 68%
    03:00 +6°C° 0 mm 0 mps 710 mmHg 69%
    04:00 +7°C° 0 mm 0 mps 711 mmHg 64%
    05:00 +9°C° 0 mm 1 mps 711 mmHg 60%
    06:00 +10°C° 0 mm 1 mps 711 mmHg 55%
    07:00 +11°C° 0 mm 1 mps 711 mmHg 53%
    08:00 +12°C° 0 mm 2 mps 711 mmHg 51%
    09:00 +13°C° 0 mm 2 mps 711 mmHg 49%
    10:00 +13°C° 0.1 mm 2 mps 711 mmHg 47%
    11:00 +14°C° 0.1 mm 2 mps 711 mmHg 46%
    12:00 +14°C° 0.1 mm 2 mps 711 mmHg 45%
    13:00 +15°C° 0.2 mm 2 mps 711 mmHg 44%
    14:00 +15°C° 0.2 mm 2 mps 711 mmHg 43%
    15:00 +15°C° 0.2 mm 2 mps 710 mmHg 43%
    16:00 +15°C° 0.1 mm 2 mps 711 mmHg 43%
    17:00 +15°C° 0.1 mm 2 mps 711 mmHg 43%
    18:00 +15°C° 0.1 mm 2 mps 711 mmHg 43%
    19:00 +15°C° 0.1 mm 2 mps 711 mmHg 46%
    20:00 +14°C° 0.1 mm 2 mps 711 mmHg 49%
    21:00 +13°C° 0.1 mm 2 mps 711 mmHg 52%
    22:00 +12°C° 0.1 mm 2 mps 711 mmHg 57%
    23:00 +11°C° 0.1 mm 1 mps 711 mmHg 61%

    5 June, Friday

    Time Temperature Precipitation Wind Pressure Humidity
    00:00 +10°C° 0.1 mm 1 mps 711 mmHg 65%
    01:00 +9°C° 0.1 mm 1 mps 711 mmHg 68%
    02:00 +9°C° 0.1 mm 1 mps 711 mmHg 70%
    03:00 +9°C° 0.1 mm 1 mps 711 mmHg 73%
    04:00 +10°C° 0 mm 1 mps 711 mmHg 69%
    05:00 +11°C° 0 mm 1 mps 711 mmHg 65%
    06:00 +12°C° 0 mm 1 mps 712 mmHg 62%
    07:00 +13°C° 0 mm 2 mps 712 mmHg 57%
    08:00 +14°C° 0 mm 2 mps 711 mmHg 51%
    09:00 +14°C° 0 mm 3 mps 711 mmHg 46%
    10:00 +14°C° 0.1 mm 3 mps 711 mmHg 44%
    11:00 +16°C° 0.1 mm 2 mps 711 mmHg 41%
    12:00 +17°C° 0.1 mm 2 mps 711 mmHg 38%
    13:00 +17°C° 0.1 mm 3 mps 711 mmHg 38%
    14:00 +17°C° 0.1 mm 3 mps 711 mmHg 37%
    15:00 +17°C° 0.1 mm 3 mps 711 mmHg 37%
    16:00 +17°C° 0.1 mm 3 mps 710 mmHg 41%
    17:00 +16°C° 0.1 mm 3 mps 710 mmHg 44%
    18:00 +16°C° 0.1 mm 3 mps 710 mmHg 48%
    19:00 +14°C° 0.1 mm 3 mps 710 mmHg 54%
    20:00 +13°C° 0.1 mm 3 mps 710 mmHg 60%
    21:00 +12°C° 0.1 mm 3 mps 710 mmHg 66%
    22:00 +10°C° 0 mm 2 mps 710 mmHg 71%
    23:00 +10°C° 0 mm 1 mps 709 mmHg 76%

    6 June, Saturday

    Time Temperature Precipitation Wind Pressure Humidity
    00:00 +8°C° 0 mm 0 mps 709 mmHg 81%
    01:00 +8°C° 0 mm 0 mps 709 mmHg 79%
    02:00 +8°C° 0 mm 0 mps 709 mmHg 78%
    03:00 +8°C° 0 mm 0 mps 709 mmHg 77%
    04:00 +10°C° 0 mm 0 mps 709 mmHg 69%
    05:00 +11°C° 0 mm 0 mps 709 mmHg 61%
    06:00 +12°C° 0 mm 0 mps 710 mmHg 53%
    07:00 +15°C° 0 mm 1 mps 710 mmHg 47%
    08:00 +16°C° 0 mm 2 mps 710 mmHg 42%
    09:00 +17°C° 0 mm 2 mps 710 mmHg 36%
    10:00 +17°C° 0 mm 2 mps 709 mmHg 34%
    11:00 +18°C° 0 mm 3 mps 709 mmHg 32%
    12:00 +19°C° 0 mm 3 mps 709 mmHg 31%
    13:00 +19°C° 0 mm 3 mps 709 mmHg 30%
    14:00 +19°C° 0 mm 2 mps 709 mmHg 30%
    15:00 +19°C° 0 mm 2 mps 709 mmHg 29%
    16:00 +19°C° 0 mm 2 mps 708 mmHg 29%
    17:00 +19°C° 0 mm 2 mps 708 mmHg 29%
    18:00 +19°C° 0 mm 2 mps 708 mmHg 29%
    19:00 +19°C° 0 mm 2 mps 708 mmHg 32%
    20:00 +18°C° 0 mm 2 mps 708 mmHg 36%
    21:00 +17°C° 0 mm 2 mps 708 mmHg 39%
    22:00 +15°C° 0 mm 1 mps 708 mmHg 44%
    23:00 +13°C° 0 mm 1 mps 707 mmHg 49%

    7 June, Sunday

    Time Temperature Precipitation Wind Pressure Humidity
    00:00 +11°C° 0 mm 0 mps 707 mmHg 54%
    01:00 +11°C° 0 mm 0 mps 707 mmHg 55%
    02:00 +11°C° 0 mm 0 mps 707 mmHg 56%
    03:00 +11°C° 0 mm 0 mps 707 mmHg 58%
    04:00 +12°C° 0 mm 0 mps 708 mmHg 53%
    05:00 +14°C° 0 mm 0 mps 708 mmHg 48%
    06:00 +15°C° 0 mm 0 mps 708 mmHg 43%
    07:00 +16°C° 0 mm 0 mps 708 mmHg 40%
    08:00 +19°C° 0 mm 1 mps 708 mmHg 38%
    09:00 +20°C° 0 mm 1 mps 708 mmHg 36%
    10:00 +20°C° 0 mm 1 mps 708 mmHg 34%
    11:00 +20°C° 0 mm 1 mps 708 mmHg 32%
    12:00 +21°C° 0 mm 1 mps 708 mmHg 30%
    13:00 +20°C° 0 mm 2 mps 708 mmHg 31%
    14:00 +20°C° 0 mm 2 mps 708 mmHg 32%
    15:00 +20°C° 0 mm 3 mps 708 mmHg 33%
    16:00 +19°C° 0.3 mm 3 mps 708 mmHg 40%
    17:00 +17°C° 0.3 mm 3 mps 708 mmHg 47%
    18:00 +15°C° 0.3 mm 4 mps 708 mmHg 54%
    19:00 +14°C° 0.8 mm 4 mps 708 mmHg 59%
    20:00 +14°C° 0.8 mm 3 mps 708 mmHg 65%
    21:00 +13°C° 0.8 mm 3 mps 708 mmHg 70%
    22:00 +12°C° 0.5 mm 3 mps 708 mmHg 74%
    23:00 +11°C° 0.5 mm 3 mps 708 mmHg 77%
    Show more